Weather History for Antwerp, Belgium

Change the Weather History Date:

Thursday, February 14, 2013

  Actual Average Record
Temperature  
Mean Temperature 31 °F -  
Max Temperature 35 °F 47 °F 60 °F (1998)
Min Temperature 27 °F 35 °F 19 °F (1999)
Degree Days  
Heating Degree Days 34    
Moisture  
Dew Point 25 °F    
Average Humidity 75    
Maximum Humidity 93    
Minimum Humidity 47    
Precipitation  
Precipitation 0.12 in - - ()
Sea Level Pressure  
Sea Level Pressure 30.01 in    
Wind  
Wind Speed 9 mph ()    
Max Wind Speed 15 mph    
Max Gust Speed -    
Visibility 4.1 miles    
Events Rain , Snow    
Averages and records for this station are not official NWS values.
T = Trace of Precipitation, MM = Missing Value Source: Averaged Metar Reports

Daily Weather History Graph

Daily Weather History Graph

Search for Another Location

Airport:

Trip Planner

Search our weather history database for the weather conditions in past years. The results will help you decide how hot, cold, wet, or windy it might be!

Date:

Astronomy

Feb. 14, 2013 Rise Set
Actual Time 7:57 AM CET 5:56 PM CET
Civil Twilight 7:22 AM CET 6:30 PM CET
Nautical Twilight 6:43 AM CET 7:09 PM CET
Astronomical Twilight 6:05 AM CET 7:48 PM CET
Moon 9:14 AM CET (2/14) 11:24 PM CET (2/14)
Length of Visible Light 11h 08m
Length of Day
9h 59m
Waxing Crescent, 19% of the Moon is Illuminated
Feb 14
Waxing Crescent
Feb 17
First Quarter
Feb 25
Full
Mar 4
Last Quarter
Mar 11
New

Hourly Weather History & Observations

Time (CET) Temp. Windchill Dew Point Humidity Pressure Visibility Wind Dir Wind Speed Gust Speed Precip Events Conditions
12:20 AM 30.2 °F 22.6 °F 19.4 °F 64% 30.24 in 5.0 mi SSE 8.1 mph - N/A   Unknown
12:50 AM 28.4 °F 20.4 °F 19.4 °F 69% 30.24 in 4.3 mi SSE 8.1 mph - N/A   Unknown
1:00 AM 29 °F - 19 °F 55% 30.25 in - SSE 8.9 mph - -   Mostly Cloudy
1:20 AM 28.4 °F 20.4 °F 19.4 °F 69% 30.21 in 5.0 mi SSE 8.1 mph - N/A   Unknown
1:50 AM 28.4 °F 20.4 °F 19.4 °F 69% 30.21 in 5.0 mi SSE 8.1 mph - N/A   Unknown
2:20 AM 28.4 °F 19.7 °F 19.4 °F 69% 30.21 in 5.0 mi SSE 9.2 mph - N/A   Unknown
2:50 AM 28.4 °F 20.4 °F 17.6 °F 64% 30.18 in 5.0 mi SSE 8.1 mph - N/A   Unknown
3:20 AM 28.4 °F 20.4 °F 19.4 °F 69% 30.18 in 5.0 mi SSE 8.1 mph - N/A   Unknown
3:50 AM 28.4 °F 19.1 °F 17.6 °F 64% 30.18 in 5.0 mi SSE 10.4 mph - N/A   Unknown
4:00 AM 28 °F - 18 °F 56% 30.19 in - SSE 11.2 mph - -   Mostly Cloudy
4:20 AM 28.4 °F 18.5 °F 19.4 °F 69% 30.15 in 5.0 mi SSE 11.5 mph - N/A   Unknown
4:50 AM 28.4 °F 18.5 °F 19.4 °F 69% 30.12 in 5.6 mi SSE 11.5 mph - N/A   Unknown
5:20 AM 30.2 °F 19.8 °F 19.4 °F 64% 30.12 in 5.6 mi SSE 13.8 mph - N/A   Unknown
5:50 AM 30.2 °F 20.8 °F 17.6 °F 60% 30.12 in 5.6 mi SSE 11.5 mph - N/A   Unknown
6:20 AM 30.2 °F 19.3 °F 17.6 °F 60% 30.09 in 5.6 mi SSE 15.0 mph - N/A   Unknown
6:50 AM 30.2 °F 20.2 °F 17.6 °F 60% 30.09 in - SSE 12.7 mph - N/A   Clear
7:00 AM 30 °F - 18 °F 49% 30.10 in 7 mi SSE 13.4 mph - -   Overcast
7:20 AM 30.2 °F 20.2 °F 17.6 °F 60% 30.06 in - SSE 12.7 mph - N/A   Clear
7:50 AM 30.2 °F 20.2 °F 17.6 °F 60% 30.06 in - South 12.7 mph - N/A   Clear
8:20 AM 32.0 °F 22.5 °F 17.6 °F 55% 30.04 in - SSE 12.7 mph - N/A   Clear
8:50 AM 32.0 °F 22.1 °F 17.6 °F 55% 30.04 in 6.2 mi South 13.8 mph - N/A   Mostly Cloudy
9:20 AM 32.0 °F 22.1 °F 17.6 °F 55% 30.04 in 5.0 mi South 13.8 mph - N/A Snow Light Snow
9:50 AM 32.0 °F 22.1 °F 19.4 °F 60% 30.01 in 6.2 mi South 13.8 mph - N/A   Mostly Cloudy
10:00 AM 32 °F - 19 °F 47% 30.03 in 6 mi South 13.4 mph - - Snow Light Snow
10:20 AM 32.0 °F 22.1 °F 21.2 °F 64% 30.01 in 5.0 mi South 13.8 mph - N/A Rain Rain
10:50 AM 32.0 °F 21.6 °F 21.2 °F 64% 30.01 in 5.0 mi South 15.0 mph - N/A   Drizzle
11:20 AM 32.0 °F 22.1 °F 23.0 °F 69% 29.98 in 5.0 mi SSE 13.8 mph - N/A Rain Rain
11:50 AM 32.0 °F 22.5 °F 23.0 °F 69% 29.98 in 5.0 mi SSE 12.7 mph - N/A   Drizzle
12:20 PM 32.0 °F 22.5 °F 24.8 °F 75% 29.95 in 4.3 mi SSE 12.7 mph - N/A Rain Rain
12:50 PM 32.0 °F 22.5 °F 24.8 °F 75% 29.95 in 4.3 mi SSE 12.7 mph - N/A Rain Rain
1:00 PM 32 °F - 25 °F 68% 29.96 in 4 mi SSE 13.4 mph - -   Light Freezing Rain
1:20 PM 32.0 °F 23.0 °F 26.6 °F 80% 29.92 in 3.7 mi SSE 11.5 mph - N/A   Drizzle
1:50 PM 32.0 °F 22.5 °F 26.6 °F 80% 29.92 in 3.7 mi SSE 12.7 mph - N/A Rain Rain
2:20 PM 32.0 °F 23.6 °F 28.4 °F 87% 29.92 in 3.7 mi SSE 10.4 mph - N/A Rain Rain
2:50 PM 32.0 °F 24.2 °F 28.4 °F 87% 29.92 in 3.1 mi SSE 9.2 mph - N/A Rain Rain
3:20 PM 32.0 °F 24.8 °F 30.2 °F 93% 29.89 in 2.8 mi South 8.1 mph - N/A Rain Rain
3:50 PM 32.0 °F 25.6 °F 30.2 °F 93% 29.89 in - South 6.9 mph - N/A Rain Light Rain
4:20 PM 33.8 °F 27.0 °F 32.0 °F 93% 29.89 in 1.5 mi South 8.1 mph - N/A   Light Drizzle
4:50 PM 33.8 °F 28.6 °F 32.0 °F 93% 29.89 in 1.7 mi South 5.8 mph - N/A   Light Drizzle
5:20 PM 33.8 °F 27.0 °F 32.0 °F 93% 29.89 in - South 8.1 mph - N/A   Mostly Cloudy
5:50 PM 33.8 °F 27.7 °F 32.0 °F 93% 29.89 in - South 6.9 mph - N/A   Mostly Cloudy
6:20 PM 33.8 °F 26.4 °F 32.0 °F 93% 29.89 in - SSW 9.2 mph - N/A Rain Light Rain
6:50 PM 33.8 °F 27.7 °F 32.0 °F 93% 29.89 in 1.9 mi SSW 6.9 mph - N/A Rain Light Drizzle
7:00 PM 34 °F - 33 °F 92% 29.91 in 2 mi SSW 6.7 mph - - Rain Light Rain
7:20 PM 35.6 °F 29.2 °F 32.0 °F 87% 29.89 in - SSW 8.1 mph - N/A   Mostly Cloudy
7:50 PM 35.6 °F 29.2 °F 32.0 °F 87% 29.89 in 2.2 mi SSW 8.1 mph - N/A   Mostly Cloudy
8:20 PM 35.6 °F 29.9 °F 32.0 °F 87% 29.92 in 2.5 mi SSW 6.9 mph - N/A   Mostly Cloudy
8:50 PM 35.6 °F 31.7 °F 33.8 °F 93% 29.92 in 2.5 mi SW 4.6 mph - N/A   Mostly Cloudy
9:20 PM 35.6 °F 30.7 °F 33.8 °F 93% 29.92 in - SW 5.8 mph - N/A   Mostly Cloudy
9:50 PM 35.6 °F 31.7 °F 33.8 °F 93% 29.92 in - SW 4.6 mph - N/A   Mostly Cloudy
10:00 PM 35 °F - 33 °F 91% 29.94 in 3 mi SW 4.5 mph - -   Mist
10:20 PM 35.6 °F 29.9 °F 33.8 °F 93% 29.92 in 2.5 mi SW 6.9 mph - N/A   Mostly Cloudy
10:50 PM 35.6 °F 29.9 °F 33.8 °F 93% 29.92 in - SW 6.9 mph - N/A   Mostly Cloudy
11:20 PM 35.6 °F 30.7 °F 33.8 °F 93% 29.92 in 1.4 mi SW 5.8 mph - N/A Rain Light Rain
11:50 PM 35.6 °F 30.7 °F 33.8 °F 93% 29.92 in 1.4 mi WSW 5.8 mph - N/A   Overcast